Retour au catalogue

SL-16 DEB

ActifLEO
NORAD 18411·DEBRIS·🇷🇺 Russia

Lancé May 13, 1987 depuis Baikonur Cosmodrome

Loading…

Prochains Passages (prochaines 24 heures)

TLE

FraisSource: Space-Track

Époque: Sep 14, 2026, 10:53 UTC

1 18411U 87041D   26257.45364676  .00000033  00000-0  67125-4 0  9999
2 18411  71.0284 257.4771 0186106  82.9841  67.3324 13.76497441974524

Suivez SL-16 DEB en temps réel avec AllMySat

Download on the App Store